Regional Weather Roundup
Issued by NWS San Angelo, TX

Home | Current Version | Previous Version | Text Only | Print | Product List | Glossary On
Versions: 1 2 3 4 5 6 7 8 9 10 11 12 13 14 15 16 17 18 19 20 21 22 23 24 25 26 27 28 29 30 31 32 33 34 35 36 37 38 39 40 41 42 43 44 45 46 47 48 49 50
000
ASUS44 KSJT 300110
RWRSJT
WEST CENTRAL TEXAS REGIONAL WEATHER ROUNDUP
NATIONAL WEATHER SERVICE SAN ANGELO TX
700 PM CST THU JAN 29 2015

NOTE: "FAIR" INDICATES FEW OR NO CLOUDS BELOW 12,000 FEET WITH NO
SIGNIFICANT WEATHER AND/OR OBSTRUCTIONS TO VISIBILITY.

TXZ049-054-064>066-071>073-076>078-098-099-113-114-127-128-139-140-
154-155-168>170-300200
...LOCATIONS ACROSS WEST CENTRAL TEXAS...

CITY           SKY/WX    TMP DP  RH WIND       PRES   REMARKS
SAN ANGELO     LGT RAIN  58  38  47 NE17      30.38R
ABILENE        CLOUDY    51  30  44 N13       30.44R
DYESS AFB      CLOUDY    51  32  46 NE14G22   30.43R
JUNCTION       MOCLDY    62  37  39 NE16      30.33R
SWEETWATER     CLOUDY    50  30  45 NE13      30.47R
BROWNWOOD      CLOUDY    55  32  41 N12       30.40R
COLEMAN        CLOUDY    55  35  47 N20G25    30.40R
SONORA         PTCLDY    59  37  44 NE10      30.38R
OZONA          FAIR      59  36  41 NE17G25   30.37R
BRADY          LGT RAIN  55  41  58 N10       30.36R
$$

TEXAS PANHANDLE/OKLAHOMA PANHANDLE

CITY           SKY/WX    TMP DP  RH WIND       PRES   REMARKS
AMARILLO       CLOUDY    42  29  59 N6        30.48S WCI  38
BORGER         CLOUDY    46  27  47 NE5       30.49R
CANADIAN       MOCLDY    46  26  45 CALM      30.48R
DALHART        CLOUDY    47  26  44 NE5       30.48R
DUMAS          CLOUDY    42  28  57 E3        30.49R
GUYMON         NOT AVBL
HEREFORD       CLOUDY    44  32  62 CALM      30.49R
PAMPA          CLOUDY    42  28  57 NE6       30.49R WCI  38
PERRYTON         N/A     43  24  47 NE7       30.48S WCI  39
$$

SOUTHERN PANHANDLE/SOUTH PLAINS/ROLLING PLAINS

CITY           SKY/WX    TMP DP  RH WIND       PRES   REMARKS
LUBBOCK        CLOUDY    47  22  37 NE9       30.46R
SNYDER         CLOUDY   N/A N/A N/A NE13G20   30.45R
CHILDRESS      CLOUDY    49  26  41 N7        30.49R
SEMINOLE       CLOUDY    51  24  34 NE13G18   30.45R
$$

PERMIAN BASIN

CITY           SKY/WX    TMP DP  RH WIND       PRES   REMARKS
MIDLAND        CLOUDY    55  29  36 NE20      30.41R
ODESSA         CLOUDY    54  28  36 NE17      30.42R
WINK           CLOUDY    55  34  45 E12       30.39R
$$

FAR WEST/SOUTHWEST MOUNTAINS/TRANS PECOS

CITY           SKY/WX    TMP DP  RH WIND       PRES   REMARKS
ALPINE         CLOUDY    54  37  52 NE12      30.43R
DRYDEN           N/A     66  38  35 N14       30.28R
EL PASO        CLOUDY    53  33  46 E21       30.30R
FORT STOCKTON  CLOUDY    57  36  45 NE15      30.37R
GUADALUPE PASS LGT RAIN  41  33  73 NE38G47   30.38R WCI  29
MARFA          CLOUDY    52  36  54 N22       30.37R
PECOS          CLOUDY    57  36  45 NE14G20   30.39R
$$

DALLAS/FORT WORTH METROPLEX

CITY           SKY/WX    TMP DP  RH WIND       PRES   REMARKS
DFW AIRPORT    MOCLDY    56  30  37 N17G25    30.38R
FTW MEACHAM    MOCLDY    55  32  41 N16       30.39R
DAL-EXECUTIVE  MOCLDY    59  31  34 N15G23    30.37R
GRAND PRAIRIE  NOT AVBL
ADDISON        NOT AVBL
MESQUITE       CLEAR     55  36  47 N17G28    30.39R
LANCASTER      MOCLDY    57  33  39 N18       30.38R
$$

NORTH CENTRAL TEXAS

CITY           SKY/WX    TMP DP  RH WIND       PRES   REMARKS
SHRMAN/DENISON CLOUDY    51  35  53 N15       30.43R
GAINESVILLE    CLOUDY    51  31  47 N14       30.44R
BRIDGEPORT     CLOUDY    52  35  51 N9        30.44R
DENTON         MOCLDY    52  31  44 N13       30.40R
WAXAHACHIE     MOCLDY    57  36  44 N17G25    30.38R
GRANBURY       CLOUDY    56  34  42 NW14G20   30.41R
$$

WESTERN NORTH TEXAS

CITY           SKY/WX    TMP DP  RH WIND       PRES   REMARKS
WICHITA FALLS  CLOUDY    48  31  51 N12       30.46R
VERNON         CLOUDY    48  24  38 N5        30.49R
BRECKENRIDGE   CLOUDY    53  29  39 N14G24    30.44R
COMANCHE       CLOUDY    54  35  48 N15       30.41R
$$

CENTRAL AND SOUTH CENTRAL TEXAS

CITY           SKY/WX    TMP DP  RH WIND       PRES   REMARKS
AUSTIN/BERGSTM MOCLDY    66  44  45 N14       30.28R
WACO           CLOUDY    61  38  42 N14       30.34R
HILLSBORO      CLOUDY    57  36  45 N9        30.36R
TEMPLE         CLOUDY    63  37  39 N14G20    30.32R
KILLEEN-GRAY   MOCLDY    63  37  37 N12       30.33R
FORT HOOD      CLOUDY    64  38  38 N13       30.32R
GEORGETOWN     MOCLDY    64  39  39 N7        30.30R
LAGO VISTA     FAIR      64  39  40 MISG      30.32R
SAN MARCOS     MOCLDY    66  50  55 NE14      30.29R
NEW BRAUNFELS  MOCLDY    65  55  70 NE6       30.26R
RANDOLPH AFB   MOCLDY    63  55  75 CALM      30.26R
SAN ANTONIO    MOCLDY    64  54  69 E6        30.26R
STINSON        MOCLDY    66  55  67 E3        30.24R
PLEASANTON     NOT AVBL
LA GRANGE      MOCLDY    63  58  83 CALM      30.24R
GIDDINGS       MOCLDY    67  52  58 N5        30.31R
$$

EAST TEXAS

CITY           SKY/WX    TMP DP  RH WIND       PRES   REMARKS
PARIS          CLOUDY    50  30  46 N16G22    30.40R
CLARKSVILLE    NOT AVBL
TYLER          MOCLDY    61  38  42 N16G24    30.32R
LONGVIEW       MOCLDY    60  38  43 N8        30.30R
PALESTINE      CLOUDY    63  41  44 N10       30.32R
NACOGDOCHES    CLOUDY    63  43  48 N12       30.28R
$$

TEXAS HILL COUNTRY AND EDWARDS PLATEAU

CITY           SKY/WX    TMP DP  RH WIND       PRES   REMARKS
LLANO          MOCLDY    64  39  39 NE6       30.36R
HORSESHOE BAY  FAIR      64  37  37 NE5       30.32R
KERRVILLE      PTCLDY    64  39  40 NE13      30.30R
FREDERICKSBRG  PTCLDY    61  36  39 NE7       30.32R
ROCKSPRINGS    NOT AVBL
HONDO          MOCLDY    62  54  74 CALM      30.27R
UVALDE         PTCLDY    63  54  72 NE3       30.26R
DEL RIO        PTCLDY    71  52  50 SE7       30.22R
$$

SOUTHEAST TEXAS

CITY           SKY/WX    TMP DP  RH WIND       PRES   REMARKS
COLLEGE STN    MOCLDY    67  46  47 N13       30.27R
CALDWELL       MOCLDY    66  43  42 N7        30.31R
CROCKETT       CLOUDY    68  45  42 N8        30.30R
BRENHAM        MOCLDY    68  56  65 CALM      30.27R
HUNTSVILLE     CLOUDY    66  54  65 CALM      30.26R
CONROE         MOCLDY    61  55  81 CALM      30.25R
HOUSTON BUSH   MOCLDY    68  57  68 N5        30.24R
HOUSTON HOBBY  PTCLDY    69  55  60 W3        30.24R
PERLAND        PTCLDY    68  60  75 S3        30.25R
WHARTON        CLEAR     65  57  76 CALM      30.25R
$$

THE UPPER TEXAS COAST

CITY           SKY/WX    TMP DP  RH WIND       PRES   REMARKS
ORANGE         PTCLDY    63  59  87 CALM      30.24R
PORT ARTHUR    PTCLDY    65  59  81 SW7       30.23R
GALVESTON      PTCLDY    63  61  93 S5        30.25R
ANGLETON       CLEAR     62  59  90 S6        30.24R
BAY CITY       CLEAR     63  62  94 CALM      30.24R
$$

TEXAS COASTAL BEND, RIO GRANDE PLAINS DEEP SOUTH TEXAS

CITY           SKY/WX    TMP DP  RH WIND       PRES   REMARKS
VICTORIA       PTCLDY    64  58  80 SE6       30.25R
BEEVILLE       FAIR      65  57  74 SE7       30.23R
ROCKPORT       PTCLDY    63  60  90 SE7       30.24R
PORT ARANSAS   PTCLDY    63  61  94 E6        30.24R
PORT LAVACA    PTCLDY    63  60  91 SE5       30.24R
CORPUS CHRISTI MOCLDY    65  61  87 E9        30.23R
KINGSVILLE NAS MOCLDY    67  61  81 E8        30.23R
COTULLA        PTCLDY    70  56  61 E8        30.22R
LAREDO         MOCLDY    71  55  56 E7        30.21R
BROWNSVILLE    CLEAR     67  62  84 E5        30.21R
PORT ISABEL    PTCLDY    65  62  90 E7        30.21R
HEBBRONVILLE   MOCLDY    68  56  65 E8        30.21R HAZE
MCALLEN        MOCLDY    70  58  65 SE9       30.20R
WESLACO        PTCLDY    69  58  68 SE5       30.20R
FALFURRIAS     PTCLDY    68  59  73 E6        30.21R
EDINBURG       MOCLDY    70  57  64 SE5       30.20R
$$


USA.gov is the U.S. government's official web portal to all federal, state and local government web resources and services.